Volver al catálogo

ATLAS 5 CENTAUR DEB

ActivoHEO
NORAD 43955·DEBRIS·🇺🇸 United States

Lanzado Sep 17, 2014 desde Cape Canaveral Space Force Station

Loading…

Próximos Pases (próximas 24 horas)

TLE

EnvejeciendoSource: Space-Track

Época: Aug 27, 2026, 17:19 UTC

1 43955U 14055J   26239.72189753 -.00000133  00000-0  00000-0 0  9993
2 43955  21.1102  92.9876 4910426 253.8956  48.4042  1.93302292 56352

Sigue ATLAS 5 CENTAUR DEB en tiempo real con AllMySat

Download on the App Store